timestamp,wind_dir_avg,wind_spd_avg,wind_spd_max_dir,wind_spd_gust,battery_voltage,lat,long
2022-07-30 00:04:01+00:00,212.0,7.85,213.0,9.0,12.65,47.59359,-54.27349
2022-07-30 00:14:00+00:00,208.0,8.25,210.0,9.19,12.57,47.59359,-54.27349
2022-07-30 00:24:00+00:00,216.0,7.71,222.0,8.92,12.57,47.59359,-54.27349
2022-07-30 00:34:00+00:00,214.0,8.46,214.0,9.16,12.57,47.59359,-54.27349
2022-07-30 00:44:00+00:00,211.0,9.11,211.0,10.21,12.57,47.59359,-54.27349
2022-07-30 00:54:00+00:00,206.0,8.84,205.0,10.13,12.57,47.59359,-54.27349
2022-07-30 01:04:00+00:00,203.0,8.63,201.0,9.78,12.57,47.59359,-54.27349
2022-07-30 01:14:00+00:00,211.0,8.86,211.0,9.93,12.49,47.59359,-54.27349
2022-07-30 01:24:00+00:00,201.0,9.05,208.0,10.07,12.49,47.59359,-54.27349
2022-07-30 01:34:00+00:00,201.0,8.97,202.0,10.03,12.49,47.59359,-54.27349
2022-07-30 01:44:00+00:00,206.0,8.56,204.0,9.84,12.49,47.59359,-54.27349
2022-07-30 01:54:00+00:00,194.0,7.56,190.0,8.5,12.49,47.59359,-54.27349
2022-07-30 02:04:00+00:00,189.0,6.92,187.0,7.88,12.49,47.59359,-54.27349
2022-07-30 02:14:00+00:00,194.0,5.76,196.0,6.3,12.49,47.59359,-54.27349
2022-07-30 02:24:00+00:00,201.0,7.2,203.0,7.81,12.49,47.59359,-54.27349
2022-07-30 02:34:00+00:00,190.0,6.26,192.0,7.39,12.49,47.59359,-54.27349
2022-07-30 02:44:00+00:00,196.0,6.28,194.0,6.9,12.49,47.59359,-54.27349
2022-07-30 02:54:00+00:00,193.0,6.0,191.0,7.66,12.49,47.59359,-54.27349
2022-07-30 03:04:00+00:00,191.0,6.25,193.0,7.41,12.49,47.59359,-54.27349
2022-07-30 03:14:01+00:00,200.0,6.08,204.0,6.66,12.49,47.59359,-54.27349
2022-07-30 03:24:01+00:00,198.0,6.7,201.0,7.74,12.49,47.59359,-54.27349
2022-07-30 03:34:01+00:00,194.0,5.36,197.0,5.95,12.49,47.59359,-54.27349
2022-07-30 03:44:01+00:00,197.0,5.64,199.0,6.3,12.49,47.59359,-54.27349
2022-07-30 03:54:01+00:00,190.0,5.85,187.0,6.71,12.49,47.59359,-54.27349
2022-07-30 04:04:01+00:00,187.0,5.71,185.0,6.56,12.49,47.59359,-54.27349
2022-07-30 04:14:01+00:00,188.0,7.02,188.0,7.66,12.41,47.59359,-54.27349
2022-07-30 04:24:01+00:00,190.0,7.59,184.0,8.47,12.41,47.59359,-54.27349
2022-07-30 04:34:01+00:00,199.0,8.56,203.0,9.49,12.41,47.59359,-54.27349
2022-07-30 04:44:01+00:00,200.0,9.21,202.0,9.92,12.41,47.59359,-54.27349
2022-07-30 04:54:01+00:00,194.0,7.68,195.0,8.38,12.41,47.59359,-54.27349
2022-07-30 05:04:01+00:00,188.0,7.07,185.0,7.6,12.41,47.59359,-54.27349
2022-07-30 05:14:01+00:00,188.0,6.21,186.0,7.17,12.41,47.59359,-54.27349
2022-07-30 05:24:01+00:00,183.0,6.56,184.0,7.32,12.41,47.59359,-54.27349
2022-07-30 05:34:01+00:00,190.0,7.52,194.0,8.26,12.41,47.59359,-54.27349
2022-07-30 05:44:01+00:00,197.0,7.48,196.0,8.04,12.41,47.59359,-54.27349
2022-07-30 05:54:01+00:00,197.0,7.41,193.0,8.35,12.41,47.59359,-54.27349
2022-07-30 06:04:01+00:00,199.0,7.99,201.0,8.88,12.41,47.59359,-54.27349
2022-07-30 06:14:00+00:00,195.0,7.95,197.0,8.54,12.41,47.59359,-54.27349
2022-07-30 06:24:00+00:00,189.0,7.36,186.0,7.97,12.41,47.59359,-54.27349
2022-07-30 06:34:00+00:00,184.0,6.96,180.0,7.54,12.41,47.59359,-54.27349
2022-07-30 06:44:00+00:00,191.0,6.78,195.0,7.8,12.41,47.59359,-54.27349
2022-07-30 06:54:00+00:00,188.0,6.36,185.0,7.07,12.41,47.59359,-54.27349
2022-07-30 07:04:00+00:00,182.0,6.94,184.0,7.74,12.41,47.59359,-54.27349
2022-07-30 07:14:01+00:00,180.0,7.85,181.0,8.3,12.41,47.59359,-54.27349
2022-07-30 07:24:01+00:00,180.0,7.37,180.0,8.08,12.41,47.59359,-54.27349
2022-07-30 07:34:01+00:00,183.0,8.22,184.0,8.98,12.41,47.59359,-54.27349
2022-07-30 07:44:01+00:00,180.0,7.4,184.0,8.45,12.41,47.59359,-54.27349
2022-07-30 07:54:01+00:00,180.0,7.18,181.0,8.05,12.41,47.59359,-54.27349
2022-07-30 08:04:01+00:00,192.0,6.97,214.0,8.67,12.41,47.59359,-54.27349
2022-07-30 08:14:00+00:00,193.0,8.59,206.0,10.48,12.33,47.59359,-54.27349
2022-07-30 08:24:00+00:00,181.0,8.22,181.0,9.25,12.33,47.59359,-54.27349
2022-07-30 08:34:00+00:00,180.0,8.87,181.0,9.89,12.33,47.59359,-54.27349
2022-07-30 08:44:00+00:00,180.0,9.75,180.0,10.74,12.33,47.59359,-54.27349
2022-07-30 08:54:00+00:00,185.0,9.42,182.0,12.57,12.33,47.59359,-54.27349
2022-07-30 09:04:00+00:00,177.0,9.63,176.0,10.56,12.33,47.59359,-54.27349
2022-07-30 09:14:00+00:00,177.0,9.12,175.0,10.01,12.17,47.59359,-54.27349
2022-07-30 09:24:00+00:00,183.0,9.39,180.0,10.67,12.17,47.59359,-54.27349
2022-07-30 09:34:00+00:00,185.0,8.28,203.0,9.37,12.17,47.59359,-54.27349
2022-07-30 09:44:00+00:00,178.0,8.78,176.0,9.95,12.17,47.59359,-54.27349
2022-07-30 09:54:00+00:00,177.0,8.73,177.0,10.59,12.17,47.59359,-54.27349
2022-07-30 10:04:00+00:00,181.0,8.04,181.0,9.94,12.17,47.59359,-54.27349
2022-07-30 10:14:01+00:00,188.0,8.11,204.0,9.77,12.33,47.59359,-54.27349
2022-07-30 10:24:01+00:00,188.0,8.86,196.0,10.77,12.33,47.59359,-54.27349
2022-07-30 10:34:01+00:00,182.0,10.31,181.0,11.04,12.33,47.59359,-54.27349
2022-07-30 10:44:01+00:00,180.0,9.73,179.0,10.49,12.33,47.59359,-54.27349
2022-07-30 10:54:01+00:00,173.0,7.73,173.0,8.56,12.33,47.59359,-54.27349
2022-07-30 11:04:01+00:00,173.0,6.97,174.0,7.6,12.33,47.59359,-54.27349
2022-07-30 11:14:00+00:00,175.0,6.86,175.0,7.57,12.81,47.59359,-54.27349
2022-07-30 11:24:00+00:00,174.0,6.6,178.0,7.37,12.81,47.59359,-54.27349
2022-07-30 11:34:00+00:00,170.0,5.38,138.0,6.88,12.81,47.59359,-54.27349
2022-07-30 11:44:00+00:00,177.0,6.58,176.0,7.57,12.81,47.59359,-54.27349
2022-07-30 11:54:00+00:00,173.0,6.12,174.0,7.17,12.81,47.59359,-54.27349
2022-07-30 12:04:00+00:00,178.0,6.82,183.0,7.78,12.81,47.59359,-54.27349
2022-07-30 12:14:00+00:00,186.0,6.81,217.0,8.09,12.81,47.59359,-54.27349
2022-07-30 12:24:00+00:00,203.0,6.23,217.0,8.02,12.81,47.59359,-54.27349
2022-07-30 12:34:00+00:00,189.0,6.45,214.0,8.63,12.81,47.59359,-54.27349
2022-07-30 12:44:00+00:00,189.0,6.29,218.0,7.67,12.81,47.59359,-54.27349
2022-07-30 12:54:00+00:00,188.0,5.52,197.0,6.44,12.81,47.59359,-54.27349
2022-07-30 13:04:00+00:00,209.0,6.41,220.0,7.43,12.81,47.59359,-54.27349
2022-07-30 13:14:00+00:00,188.0,5.15,187.0,5.81,13.21,47.59359,-54.27349
2022-07-30 13:24:00+00:00,174.0,5.3,176.0,5.9,13.21,47.59359,-54.27349
2022-07-30 13:34:00+00:00,172.0,6.96,172.0,7.82,13.21,47.59359,-54.27349
2022-07-30 13:44:00+00:00,173.0,6.88,170.0,8.37,13.21,47.59359,-54.27349
2022-07-30 13:54:00+00:00,177.0,7.88,176.0,8.77,13.21,47.59359,-54.27349
2022-07-30 14:04:00+00:00,172.0,6.2,172.0,7.16,13.21,47.59359,-54.27349
2022-07-30 14:14:00+00:00,180.0,6.97,178.0,7.82,13.29,47.59359,-54.27349
2022-07-30 14:24:00+00:00,191.0,5.72,201.0,6.54,13.29,47.59359,-54.27349
2022-07-30 14:34:00+00:00,191.0,5.45,218.0,6.92,13.29,47.59359,-54.27349
2022-07-30 14:44:00+00:00,223.0,6.52,222.0,7.91,13.29,47.59359,-54.27349
2022-07-30 14:54:00+00:00,217.0,8.83,213.0,10.52,13.29,47.59359,-54.27349
2022-07-30 15:04:00+00:00,206.0,8.27,210.0,9.92,13.29,47.59359,-54.27349
2022-07-30 15:14:00+00:00,211.0,8.5,211.0,9.22,13.21,47.59359,-54.27349
2022-07-30 15:24:00+00:00,217.0,8.28,216.0,9.35,13.21,47.59359,-54.27349
2022-07-30 15:34:00+00:00,230.0,7.87,231.0,8.76,13.21,47.59359,-54.27349
2022-07-30 15:44:00+00:00,231.0,7.42,226.0,8.42,13.21,47.59359,-54.27349
2022-07-30 15:54:00+00:00,225.0,7.54,223.0,8.93,13.21,47.59359,-54.27349
2022-07-30 16:04:00+00:00,219.0,8.05,222.0,9.02,13.21,47.59359,-54.27349
2022-07-30 16:14:00+00:00,216.0,8.65,217.0,9.83,13.6,47.59359,-54.27349
2022-07-30 16:24:00+00:00,207.0,7.47,212.0,8.24,13.6,47.59359,-54.27349
2022-07-30 16:34:00+00:00,212.0,6.97,213.0,8.04,13.6,47.59359,-54.27349
2022-07-30 16:44:00+00:00,216.0,7.68,218.0,9.07,13.6,47.59359,-54.27349
2022-07-30 16:54:00+00:00,215.0,6.24,217.0,7.33,13.6,47.59359,-54.27349
2022-07-30 17:04:00+00:00,215.0,6.58,215.0,7.45,13.6,47.59359,-54.27349
2022-07-30 17:14:00+00:00,222.0,5.98,217.0,6.68,13.68,47.59359,-54.27349
2022-07-30 17:24:00+00:00,210.0,5.42,208.0,6.16,13.68,47.59359,-54.27349
2022-07-30 17:34:00+00:00,198.0,5.59,198.0,6.18,13.68,47.59359,-54.27349
2022-07-30 17:44:00+00:00,233.0,4.01,228.0,4.64,13.68,47.59359,-54.27349
2022-07-30 17:54:00+00:00,252.0,5.78,254.0,6.28,13.68,47.59359,-54.27349
2022-07-30 18:04:00+00:00,223.0,5.68,218.0,7.11,13.68,47.59359,-54.27349
2022-07-30 18:14:01+00:00,206.0,5.35,211.0,5.74,13.76,47.59359,-54.27349
2022-07-30 18:24:01+00:00,201.0,6.1,205.0,6.58,13.76,47.59359,-54.27349
2022-07-30 18:34:01+00:00,200.0,5.73,211.0,6.33,13.76,47.59359,-54.27349
2022-07-30 18:44:01+00:00,203.0,5.31,206.0,5.83,13.76,47.59359,-54.27349
2022-07-30 18:54:01+00:00,202.0,5.72,203.0,6.27,13.76,47.59359,-54.27349
2022-07-30 19:04:01+00:00,205.0,5.67,206.0,6.24,13.76,47.59359,-54.27349
2022-07-30 19:14:00+00:00,208.0,6.01,212.0,6.62,13.6,47.59359,-54.27349
2022-07-30 19:24:00+00:00,206.0,5.67,207.0,6.26,13.6,47.59359,-54.27349
2022-07-30 19:34:00+00:00,211.0,5.61,212.0,6.42,13.6,47.59359,-54.27349
2022-07-30 19:44:00+00:00,211.0,4.88,234.0,6.63,13.6,47.59359,-54.27349
2022-07-30 19:54:00+00:00,208.0,4.08,221.0,4.76,13.6,47.59359,-54.27349
2022-07-30 20:04:00+00:00,205.0,4.38,212.0,4.78,13.6,47.59359,-54.27349
2022-07-30 20:14:00+00:00,189.0,5.05,191.0,5.56,13.68,47.59359,-54.27349
2022-07-30 20:24:00+00:00,189.0,5.67,193.0,6.06,13.68,47.59359,-54.27349
2022-07-30 20:34:00+00:00,199.0,5.96,213.0,6.79,13.68,47.59359,-54.27349
2022-07-30 20:44:00+00:00,219.0,5.79,228.0,7.31,13.68,47.59359,-54.27349
2022-07-30 20:54:00+00:00,219.0,6.56,220.0,6.98,13.68,47.59359,-54.27349
2022-07-30 21:04:00+00:00,218.0,8.11,220.0,9.57,13.68,47.59359,-54.27349
2022-07-30 21:14:00+00:00,220.0,7.86,224.0,9.04,13.53,47.59359,-54.27349
2022-07-30 21:24:00+00:00,219.0,8.82,218.0,10.02,13.53,47.59359,-54.27349
2022-07-30 21:34:00+00:00,214.0,8.73,217.0,9.37,13.53,47.59359,-54.27349
2022-07-30 21:44:00+00:00,210.0,7.77,213.0,9.0,13.53,47.59359,-54.27349
2022-07-30 21:54:00+00:00,207.0,7.84,206.0,8.68,13.53,47.59359,-54.27349
2022-07-30 22:04:00+00:00,211.0,8.77,216.0,9.8,13.53,47.59359,-54.27349
2022-07-30 22:14:01+00:00,216.0,10.46,214.0,11.5,13.13,47.59359,-54.27349
2022-07-30 22:24:01+00:00,213.0,10.12,213.0,11.21,13.13,47.59359,-54.27349
2022-07-30 22:34:01+00:00,209.0,7.65,207.0,8.57,13.13,47.59359,-54.27349
2022-07-30 22:44:01+00:00,207.0,8.13,216.0,9.05,13.13,47.59359,-54.27349
2022-07-30 22:54:01+00:00,209.0,8.23,213.0,8.99,13.13,47.59359,-54.27349
2022-07-30 23:04:01+00:00,222.0,6.87,224.0,8.26,13.13,47.59359,-54.27349
2022-07-30 23:14:00+00:00,221.0,6.74,217.0,7.73,12.65,47.59359,-54.27349
2022-07-30 23:24:00+00:00,220.0,7.56,224.0,8.56,12.65,47.59359,-54.27349
2022-07-30 23:34:00+00:00,210.0,6.92,223.0,7.64,12.65,47.59359,-54.27349
2022-07-30 23:44:00+00:00,208.0,7.4,210.0,8.07,12.65,47.59359,-54.27349
2022-07-30 23:54:00+00:00,214.0,6.45,222.0,7.44,12.65,47.59359,-54.27349
